Regional Weather Roundup
Issued by NWS

Home | Current Version | Previous Version | Text Only | Print | Product List | Glossary On
Versions: 1 2 3 4 5 6 7 8 9 10 11 12 13 14 15 16 17 18 19 20 21 22 23 24 25 26 27 28 29 30 31 32 33 34 35 36 37 38 39 40 41 42 43 44 45 46 47 48 49 50
000
ASUS44 KMEG 300000
RWRTN
TENNESSEE HOURLY STATE WEATHER ROUNDUP
NATIONAL WEATHER SERVICE MEMPHIS TN
700 PM CDT SUN MAR 29 2015

TNZ002-004-019-021-049-052-054-088>092-300100-
WEST TENNESSEE

CITY           SKY/WX    TMP DP  RH WIND       PRES   REMARKS
MEMPHIS INTL   MOCLDY    68  50  52 S8        30.03R
NWS MEMPHIS      N/A     69 N/A N/A MISG        N/A
JACKSON        CLEAR     62  41  46 S9        30.03S
DYERSBURG      CLEAR     63  37  39 SW8       30.05R
UNION CITY     CLEAR     61  48  63 SW7       30.03R
PARIS          CLEAR     57  41  54 SW9       30.03R
LEXINGTON      CLEAR     59  39  47 S12       30.03F
SAVANNAH       CLEAR     61  41  48 S8        30.07F
$$

TNZ008-025-027-028-033-062-065-066-300100-
NORTH MIDDLE TENNESSEE

CITY           SKY/WX    TMP DP  RH WIND       PRES   REMARKS
NASHVILLE      PTCLDY    58  34  40 S17G25    30.05F
CLARKSVILLE    CLEAR     59  38  45 S14G22    29.99S
COOKEVILLE     MOCLDY    57  30  35 S15       30.09S
CROSSVILLE     CLOUDY    54  19  25 S9        30.12R
$$

TNZ061-075-076-078-094-096-097-300100-
SOUTH MIDDLE TENNESSEE

CITY           SKY/WX    TMP DP  RH WIND       PRES   REMARKS
FAYETTEVILLE   PTCLDY    55  34  44 S8        30.14S
TULLAHOMA      MOCLDY    55  30  38 S8        30.13F
WINCHESTER     CLOUDY    55  30  38 S13       30.16S
COLUMBIA       CLEAR     57  39  51 S13       30.07F
SHELBYVILLE    CLEAR     57  36  44 S12       30.12F
$$

TNZ017-018-042-046-047-300100-
NORTHEAST TENNESSEE

CITY           SKY/WX    TMP DP  RH WIND       PRES   REMARKS
TRI CITIES     MOCLDY    49  15  25 SW5       30.12F
ELIZABETHTON   CLEAR     43  21  42 CALM      30.13S
$$

TNZ012-013-036-069-073-074-300100-
CENTRAL EAST TENNESSEE

CITY           SKY/WX    TMP DP  RH WIND       PRES   REMARKS
KNOXVILLE      PTCLDY    54  22  28 SW10      30.13F
OAK RIDGE      CLEAR     56  20  24 SW8       30.14F
GATLINBURG     CLEAR     55  18  22 W5        30.13S
$$

TNZ083-085-099-300100-
SOUTHEAST TENNESSEE

CITY           SKY/WX    TMP DP  RH WIND       PRES   REMARKS
CHATTANOOGA    MOCLDY    60  27  28 S8        30.17F
$$

SKY/WX REPORTED AS FAIR MEANS FEW OR NO CLOUDS BELOW
12 THOUSAND FEET.



USA.gov is the U.S. government's official web portal to all federal, state and local government web resources and services.